| time (UTC) | temp F | wind direction | speed MPH | gust MPH | rain 1hr in | rain 24hr in | rain mn in | humidity % | barometer mb |
| 20260905234601 | 81 | 275 | 0.0 | 0.0 | 0.00 | 0.00 | 0.00 | 87 | 987.8 |
| 20260905234058 | 81 | 275 | 1.0 | 1.0 | 0.00 | 0.00 | 0.00 | 86 | 987.8 |
| 20260905233553 | 82 | 275 | 1.0 | 1.0 | 0.00 | 0.00 | 0.00 | 85 | 987.7 |
| 20260905233049 | 82 | 275 | 0.0 | 0.0 | 0.00 | 0.00 | 0.00 | 85 | 987.7 |
| 20260905232545 | 82 | 275 | 0.0 | 1.0 | 0.00 | 0.00 | 0.00 | 85 | 987.6 |
| 20260905232041 | 82 | 275 | 1.0 | 1.0 | 0.00 | 0.00 | 0.00 | 85 | 987.6 |
| 20260905231537 | 82 | 275 | 0.0 | 1.0 | 0.00 | 0.00 | 0.00 | 85 | 987.6 |
| 20260905231034 | 83 | 275 | 0.0 | 1.0 | 0.00 | 0.00 | 0.00 | 84 | 987.2 |
| 20260905230529 | 83 | 275 | 0.0 | 1.0 | 0.00 | 0.00 | 0.00 | 83 | 987.4 |
| 20260905230024 | 83 | 275 | 1.0 | 1.0 | 0.00 | 0.00 | 0.00 | 81 | 987.1 |
| 20260905225238 | 84 | 275 | 1.0 | 1.0 | 0.00 | 0.00 | 0.00 | 79 | 987.5 |
| 20260905224513 | 84 | 275 | 0.0 | 1.0 | 0.00 | 0.00 | 0.00 | 78 | 987.3 |
| 20260905224008 | 84 | 275 | 0.0 | 1.0 | 0.00 | 0.00 | 0.00 | 77 | 987.2 |
| 20260905223505 | 85 | 275 | 1.0 | 1.0 | 0.00 | 0.00 | 0.00 | 77 | 987.2 |
| 20260905223001 | 85 | 275 | 1.0 | 1.0 | 0.00 | 0.00 | 0.00 | 75 | 987.4 |
| 20260905222457 | 86 | 275 | 0.0 | 2.0 | 0.00 | 0.00 | 0.00 | 71 | 987.4 |
| 20260905221953 | 87 | 275 | 1.0 | 1.0 | 0.00 | 0.00 | 0.00 | 69 | 987.4 |
| 20260905221449 | 87 | 275 | 1.0 | 2.0 | 0.00 | 0.00 | 0.00 | 69 | 987.3 |
| 20260905221205 | 88 | 275 | 0.0 | 1.0 | 0.00 | 0.00 | 0.00 | 69 | 987.2 |
| 20260905220440 | 89 | 275 | 1.0 | 1.0 | 0.00 | 0.00 | 0.00 | 68 | 987.2 |
| 20260905215937 | 90 | 275 | 0.0 | 1.0 | 0.00 | 0.00 | 0.00 | 62 | 987.3 |
| 20260905215433 | 90 | 231 | 0.0 | 2.0 | 0.00 | 0.00 | 0.00 | 66 | 987.3 |
| 20260905214928 | 91 | 231 | 0.0 | 1.0 | 0.00 | 0.00 | 0.00 | 63 | 987.4 |
| 20260905214425 | 92 | 231 | 1.0 | 2.0 | 0.00 | 0.00 | 0.00 | 58 | 987.3 |
| 20260905213920 | 92 | 5 | 0.0 | 2.0 | 0.00 | 0.00 | 0.00 | 53 | 987.5 |
| 20260905213417 | 93 | 10 | 1.0 | 2.0 | 0.00 | 0.00 | 0.00 | 61 | 987.5 |
| 20260905212913 | 94 | 33 | 1.0 | 2.0 | 0.00 | 0.00 | 0.00 | 59 | 987.4 |
| 20260905212408 | 95 | 33 | 1.0 | 2.0 | 0.00 | 0.00 | 0.00 | 56 | 987.2 |
| 20260905211905 | 94 | 33 | 2.0 | 2.0 | 0.00 | 0.00 | 0.00 | 54 | 987.3 |
| 20260905211401 | 95 | 293 | 0.0 | 2.0 | 0.00 | 0.00 | 0.00 | 53 | 987.2 |
| 20260905210857 | 96 | 293 | 1.0 | 2.0 | 0.00 | 0.00 | 0.00 | 52 | 987.6 |
| 20260905210353 | 97 | 292 | 2.0 | 3.0 | 0.00 | 0.00 | 0.00 | 48 | 987.3 |
| 20260905205848 | 97 | 302 | 0.0 | 1.0 | 0.00 | 0.00 | 0.00 | 52 | 987.6 |
| 20260905205606 | 96 | 63 | 1.0 | 8.0 | 0.00 | 0.00 | 0.00 | 51 | 987.7 |
| 20260905204841 | 96 | 302 | 0.0 | 1.0 | 0.00 | 0.00 | 0.00 | 55 | 987.6 |
| 20260905204337 | 98 | 9 | 1.0 | 2.0 | 0.00 | 0.00 | 0.00 | 52 | 987.8 |
| 20260905203835 | 99 | 3 | 1.0 | 3.0 | 0.00 | 0.00 | 0.00 | 48 | 987.7 |
| 20260905203814 | 98 | 200 | 2.0 | 4.0 | 0.00 | 0.00 | 0.00 | 47 | 987.8 |
| 20260905202825 | 98 | 82 | 0.0 | 8.0 | 0.00 | 0.00 | 0.00 | 47 | 987.6 |
| 20260905202321 | 97 | 334 | 0.0 | 3.0 | 0.00 | 0.00 | 0.00 | 48 | 987.8 |
| 20260905201817 | 97 | 111 | 1.0 | 2.0 | 0.00 | 0.00 | 0.00 | 46 | 987.9 |
| 20260905201533 | 98 | 238 | 0.0 | 2.0 | 0.00 | 0.00 | 0.00 | 49 | 988.2 |
| 20260905201029 | 98 | 235 | 0.0 | 2.0 | 0.00 | 0.00 | 0.00 | 51 | 988.2 |
| 20260905200305 | 98 | 48 | 2.0 | 4.0 | 0.00 | 0.00 | 0.00 | 49 | 988.3 |
| 20260905195800 | 98 | 220 | 1.0 | 1.0 | 0.00 | 0.00 | 0.00 | 48 | 988.2 |
| 20260905195257 | 98 | 220 | 2.0 | 2.0 | 0.00 | 0.00 | 0.00 | 46 | 988.5 |
| 20260905194753 | 98 | 254 | 0.0 | 1.0 | 0.00 | 0.00 | 0.00 | 48 | 988.4 |
| 20260905194249 | 98 | 240 | 1.0 | 1.0 | 0.00 | 0.00 | 0.00 | 52 | 988.4 |
| 20260905193745 | 98 | 239 | 2.0 | 4.0 | 0.00 | 0.00 | 0.00 | 46 | 988.8 |
| 20260905193241 | 97 | 202 | 1.0 | 2.0 | 0.00 | 0.00 | 0.00 | 50 | 988.6 |
| 20260905192737 | 96 | 279 | 1.0 | 2.0 | 0.00 | 0.00 | 0.00 | 53 | 988.8 |
| 20260905192235 | 96 | 358 | 0.0 | 1.0 | 0.00 | 0.00 | 0.00 | 49 | 988.7 |
| 20260905191728 | 96 | 75 | 0.0 | 3.0 | 0.00 | 0.00 | 0.00 | 50 | 988.8 |
| 20260905191225 | 96 | 154 | 2.0 | 3.0 | 0.00 | 0.00 | 0.00 | 49 | 989.0 |
| 20260905190721 | 95 | 262 | 0.0 | 1.0 | 0.00 | 0.00 | 0.00 | 49 | 989.0 |
| 20260905190217 | 95 | 205 | 1.0 | 2.0 | 0.00 | 0.00 | 0.00 | 49 | 989.2 |
| 20260905185430 | 96 | 191 | 1.0 | 3.0 | 0.00 | 0.00 | 0.00 | 51 | 989.1 |
| 20260905184705 | 95 | 260 | 1.0 | 2.0 | 0.00 | 0.00 | 0.00 | 50 | 989.1 |
| 20260905184201 | 96 | 242 | 1.0 | 1.0 | 0.00 | 0.00 | 0.00 | 48 | 989.3 |
| 20260905183917 | 95 | 241 | 0.0 | 2.0 | 0.00 | 0.00 | 0.00 | 50 | 989.4 |
| 20260905183153 | 95 | 328 | 2.0 | 3.0 | 0.00 | 0.00 | 0.00 | 51 | 989.3 |
| 20260905182649 | 94 | 185 | 2.0 | 4.0 | 0.00 | 0.00 | 0.00 | 53 | 989.6 |
| 20260905182145 | 94 | 331 | 1.0 | 3.0 | 0.00 | 0.00 | 0.00 | 50 | 989.7 |
| 20260905181641 | 94 | 273 | 1.0 | 2.0 | 0.00 | 0.00 | 0.00 | 52 | 989.7 |
| 20260905181137 | 94 | 270 | 2.0 | 2.0 | 0.00 | 0.00 | 0.00 | 50 | 989.9 |
| 20260905180634 | 94 | 314 | 0.0 | 3.0 | 0.00 | 0.00 | 0.00 | 49 | 989.9 |
| 20260905180347 | 93 | 308 | 1.0 | 2.0 | 0.00 | 0.00 | 0.00 | 49 | 990.0 |
| 20260905175624 | 93 | 308 | 1.0 | 2.0 | 0.00 | 0.00 | 0.00 | 50 | 989.9 |
| 20260905175341 | 94 | 307 | 2.0 | 2.0 | 0.00 | 0.00 | 0.00 | 49 | 989.9 |
| 20260905174616 | 94 | 123 | 2.0 | 3.0 | 0.00 | 0.00 | 0.00 | 51 | 990.1 |
| 20260905174113 | 93 | 106 | 0.0 | 3.0 | 0.00 | 0.00 | 0.00 | 51 | 990.3 |
| 20260905173609 | 93 | 306 | 0.0 | 3.0 | 0.00 | 0.00 | 0.00 | 51 | 990.4 |
| 20260905173105 | 93 | 259 | 1.0 | 3.0 | 0.00 | 0.00 | 0.00 | 55 | 990.3 |
| 20260905172600 | 93 | 96 | 2.0 | 3.0 | 0.00 | 0.00 | 0.00 | 52 | 990.4 |
| 20260905172318 | 93 | 52 | 1.0 | 4.0 | 0.00 | 0.00 | 0.00 | 55 | 990.5 |
| 20260905171553 | 92 | 47 | 4.0 | 6.0 | 0.00 | 0.00 | 0.00 | 52 | 990.7 |
| 20260905171048 | 91 | 168 | 1.0 | 2.0 | 0.00 | 0.00 | 0.00 | 55 | 990.5 |
| 20260905170545 | 91 | 350 | 2.0 | 3.0 | 0.00 | 0.00 | 0.00 | 54 | 990.7 |
| 20260905170041 | 92 | 52 | 1.0 | 3.0 | 0.00 | 0.00 | 0.00 | 54 | 990.8 |
| 20260905165537 | 92 | 161 | 1.0 | 6.0 | 0.00 | 0.00 | 0.00 | 53 | 990.6 |
| 20260905165034 | 91 | 89 | 5.0 | 7.0 | 0.00 | 0.00 | 0.00 | 52 | 990.6 |
| 20260905164528 | 91 | 81 | 3.0 | 4.0 | 0.00 | 0.00 | 0.00 | 52 | 990.7 |
| 20260905164024 | 91 | 124 | 1.0 | 2.0 | 0.00 | 0.00 | 0.00 | 54 | 990.8 |
| 20260905163520 | 90 | 88 | 0.0 | 4.0 | 0.00 | 0.00 | 0.00 | 55 | 990.6 |
| 20260905163017 | 90 | 21 | 1.0 | 4.0 | 0.00 | 0.00 | 0.00 | 55 | 990.7 |
| 20260905162512 | 89 | 56 | 2.0 | 4.0 | 0.00 | 0.00 | 0.00 | 54 | 990.9 |
| 20260905162009 | 89 | 74 | 1.0 | 6.0 | 0.00 | 0.00 | 0.00 | 54 | 990.7 |
| 20260905161505 | 90 | 122 | 2.0 | 4.0 | 0.00 | 0.00 | 0.00 | 54 | 990.6 |
| 20260905161001 | 89 | 132 | 2.0 | 3.0 | 0.00 | 0.00 | 0.00 | 55 | 990.7 |
| 20260905160457 | 89 | 59 | 3.0 | 4.0 | 0.00 | 0.00 | 0.00 | 55 | 991.0 |
| 20260905160212 | 89 | 90 | 4.0 | 7.0 | 0.00 | 0.00 | 0.00 | 55 | 990.8 |
| 20260905155449 | 89 | 79 | 2.0 | 4.0 | 0.00 | 0.00 | 0.00 | 54 | 990.7 |
| 20260905154945 | 89 | 110 | 1.0 | 3.0 | 0.00 | 0.00 | 0.00 | 55 | 990.9 |
| 20260905154441 | 89 | 91 | 5.0 | 6.0 | 0.00 | 0.00 | 0.00 | 54 | 991.2 |
| 20260905153937 | 88 | 135 | 2.0 | 3.0 | 0.00 | 0.00 | 0.00 | 56 | 991.2 |
| 20260905153435 | 88 | 46 | 4.0 | 7.0 | 0.00 | 0.00 | 0.00 | 56 | 991.2 |
| 20260905152929 | 88 | 90 | 5.0 | 7.0 | 0.00 | 0.00 | 0.00 | 56 | 991.3 |
| 20260905152424 | 88 | 84 | 3.0 | 7.0 | 0.00 | 0.00 | 0.00 | 57 | 991.3 |
| 20260905151920 | 87 | 122 | 1.0 | 4.0 | 0.00 | 0.00 | 0.00 | 58 | 991.4 |
| 20260905151417 | 87 | 99 | 2.0 | 6.0 | 0.00 | 0.00 | 0.00 | 57 | 991.6 |
| 20260905150913 | 87 | 72 | 5.0 | 11.0 | 0.00 | 0.00 | 0.00 | 57 | 991.5 |
| 20260905150408 | 87 | 64 | 4.0 | 7.0 | 0.00 | 0.00 | 0.00 | 59 | 991.3 |
| 20260905145905 | 87 | 72 | 4.0 | 6.0 | 0.00 | 0.00 | 0.00 | 59 | 991.2 |
| 20260905145401 | 86 | 112 | 0.0 | 3.0 | 0.00 | 0.00 | 0.00 | 61 | 991.1 |
| 20260905145117 | 86 | 83 | 1.0 | 6.0 | 0.00 | 0.00 | 0.00 | 62 | 991.4 |
| 20260905144353 | 86 | 115 | 2.0 | 6.0 | 0.00 | 0.00 | 0.00 | 62 | 991.1 |
| 20260905143848 | 86 | 81 | 5.0 | 9.0 | 0.00 | 0.00 | 0.00 | 63 | 991.3 |
| 20260905143345 | 85 | 40 | 2.0 | 10.0 | 0.00 | 0.00 | 0.00 | 64 | 991.5 |
| 20260905142841 | 86 | 224 | 5.0 | 9.0 | 0.00 | 0.00 | 0.00 | 66 | 991.6 |
| 20260905142557 | 85 | 73 | 3.0 | 7.0 | 0.00 | 0.00 | 0.00 | 69 | 991.5 |
| 20260905141834 | 84 | 117 | 4.0 | 11.0 | 0.00 | 0.00 | 0.00 | 70 | 991.3 |
| 20260905141328 | 83 | 81 | 4.0 | 9.0 | 0.00 | 0.00 | 0.00 | 71 | 991.5 |
| 20260905141044 | 84 | 102 | 0.0 | 1.0 | 0.00 | 0.00 | 0.00 | 78 | 991.2 |
| 20260905140320 | 83 | 352 | 0.0 | 2.0 | 0.00 | 0.00 | 0.00 | 76 | 991.1 |
| 20260905135816 | 82 | 71 | 1.0 | 2.0 | 0.00 | 0.00 | 0.00 | 80 | 991.1 |
| 20260905135313 | 80 | 71 | 1.0 | 1.0 | 0.00 | 0.00 | 0.00 | 86 | 991.2 |
| 20260905134809 | 79 | 71 | 1.0 | 1.0 | 0.00 | 0.00 | 0.00 | 89 | 991.2 |
| 20260905134305 | 79 | 71 | 1.0 | 1.0 | 0.00 | 0.00 | 0.00 | 89 | 991.1 |
| 20260905134021 | 79 | 71 | 0.0 | 0.0 | 0.00 | 0.00 | 0.00 | 89 | 991.1 |
| 20260905133256 | 80 | 71 | 1.0 | 1.0 | 0.00 | 0.00 | 0.00 | 87 | 991.3 |
| 20260905133015 | 80 | 71 | 0.0 | 1.0 | 0.00 | 0.00 | 0.00 | 87 | 991.2 |
| 20260905132248 | 79 | 71 | 0.0 | 0.0 | 0.00 | 0.00 | 0.00 | 86 | 991.1 |
| 20260905131744 | 79 | 71 | 0.0 | 1.0 | 0.00 | 0.00 | 0.00 | 89 | 991.2 |
| 20260905131501 | 79 | 71 | 0.0 | 2.0 | 0.00 | 0.00 | 0.00 | 88 | 991.3 |
| 20260905130736 | 78 | 71 | 0.0 | 0.0 | 0.00 | 0.00 | 0.00 | 89 | 991.1 |
| 20260905130235 | 77 | 71 | 0.0 | 1.0 | 0.00 | 0.00 | 0.00 | 91 | 991.0 |
| 20260905125729 | 76 | 71 | 0.0 | 0.0 | 0.00 | 0.00 | 0.00 | 92 | 991.2 |
| 20260905125224 | 75 | 71 | 0.0 | 0.0 | 0.00 | 0.00 | 0.00 | 94 | 991.1 |
| 20260905124942 | 75 | 71 | 0.0 | 1.0 | 0.00 | 0.00 | 0.00 | 96 | 991.4 |
| 20260905124217 | 74 | 71 | 0.0 | 0.0 | 0.00 | 0.00 | 0.00 | 97 | 991.0 |
| 20260905123713 | 74 | 71 | 0.0 | 0.0 | 0.00 | 0.00 | 0.00 | 98 | 991.2 |
| 20260905123208 | 73 | 71 | 0.0 | 0.0 | 0.00 | 0.00 | 0.00 | 98 | 991.1 |
| 20260905122704 | 72 | 71 | 0.0 | 0.0 | 0.00 | 0.00 | 0.00 | 98 | 991.1 |
| 20260905122422 | 72 | 71 | 0.0 | 0.0 | 0.00 | 0.00 | 0.00 | 98 | 990.9 |
| 20260905121656 | 71 | 71 | 0.0 | 0.0 | 0.00 | 0.00 | 0.00 | 98 | 991.0 |
| 20260905121153 | 71 | 71 | 0.0 | 0.0 | 0.00 | 0.00 | 0.00 | 98 | 991.0 |
| 20260905120649 | 71 | 71 | 0.0 | 0.0 | 0.00 | 0.00 | 0.00 | 98 | 990.9 |
| 20260905120144 | 71 | 71 | 0.0 | 0.0 | 0.00 | 0.00 | 0.00 | 98 | 990.9 |
| 20260905115641 | 71 | 71 | 0.0 | 0.0 | 0.00 | 0.00 | 0.00 | 98 | 990.7 |
| 20260905115137 | 71 | 71 | 0.0 | 0.0 | 0.00 | 0.00 | 0.00 | 98 | 990.7 |
| 20260905114634 | 71 | 71 | 0.0 | 0.0 | 0.00 | 0.00 | 0.00 | 98 | 990.7 |
| 20260905114129 | 71 | 71 | 0.0 | 0.0 | 0.00 | 0.00 | 0.00 | 98 | 990.7 |
| 20260905113625 | 70 | 71 | 0.0 | 0.0 | 0.00 | 0.00 | 0.00 | 98 | 990.8 |
| 20260905113121 | 70 | 71 | 0.0 | 0.0 | 0.00 | 0.00 | 0.00 | 98 | 990.6 |
| 20260905112618 | 70 | 71 | 0.0 | 0.0 | 0.00 | 0.00 | 0.00 | 98 | 990.6 |
| 20260905112112 | 70 | 71 | 0.0 | 0.0 | 0.00 | 0.00 | 0.00 | 98 | 990.5 |
| 20260905111608 | 70 | 71 | 0.0 | 0.0 | 0.00 | 0.00 | 0.00 | 98 | 990.3 |
| 20260905111326 | 70 | 71 | 0.0 | 0.0 | 0.00 | 0.00 | 0.00 | 98 | 990.5 |
| 20260905110601 | 70 | 71 | 0.0 | 0.0 | 0.00 | 0.00 | 0.00 | 98 | 990.2 |
| 20260905110056 | 70 | 71 | 0.0 | 0.0 | 0.00 | 0.00 | 0.00 | 98 | 990.1 |
| 20260905105553 | 71 | 71 | 0.0 | 0.0 | 0.00 | 0.00 | 0.00 | 98 | 990.3 |
| 20260905105048 | 71 | 71 | 0.0 | 0.0 | 0.00 | 0.00 | 0.00 | 98 | 989.9 |
| 20260905104545 | 70 | 71 | 0.0 | 0.0 | 0.00 | 0.00 | 0.00 | 98 | 990.0 |
| 20260905104041 | 71 | 71 | 0.0 | 0.0 | 0.00 | 0.00 | 0.00 | 98 | 990.2 |
| 20260905103756 | 70 | 71 | 0.0 | 0.0 | 0.00 | 0.00 | 0.00 | 98 | 990.1 |
| 20260905103036 | 71 | 71 | 0.0 | 0.0 | 0.00 | 0.00 | 0.00 | 98 | 990.0 |
| 20260905102529 | 71 | 71 | 0.0 | 0.0 | 0.00 | 0.00 | 0.00 | 98 | 989.9 |
| 20260905102025 | 71 | 71 | 0.0 | 0.0 | 0.00 | 0.00 | 0.00 | 98 | 990.2 |
| 20260905101521 | 71 | 71 | 0.0 | 0.0 | 0.00 | 0.00 | 0.00 | 98 | 990.1 |
| 20260905101016 | 71 | 71 | 0.0 | 0.0 | 0.00 | 0.00 | 0.00 | 98 | 990.0 |
| 20260905100513 | 71 | 71 | 0.0 | 0.0 | 0.00 | 0.00 | 0.00 | 98 | 990.0 |
| 20260905100008 | 71 | 71 | 0.0 | 0.0 | 0.00 | 0.00 | 0.00 | 98 | 990.0 |
| 20260905095727 | 71 | 71 | 0.0 | 0.0 | 0.00 | 0.00 | 0.00 | 98 | 990.0 |
| 20260905095220 | 71 | 71 | 0.0 | 0.0 | 0.00 | 0.00 | 0.00 | 98 | 989.7 |
| 20260905094456 | 71 | 71 | 0.0 | 0.0 | 0.00 | 0.00 | 0.00 | 98 | 989.7 |
| 20260905093953 | 71 | 71 | 0.0 | 0.0 | 0.00 | 0.00 | 0.00 | 98 | 989.6 |
| 20260905093449 | 71 | 71 | 0.0 | 0.0 | 0.00 | 0.00 | 0.00 | 98 | 989.5 |
| 20260905092944 | 71 | 71 | 0.0 | 0.0 | 0.00 | 0.00 | 0.00 | 98 | 989.6 |
| 20260905092440 | 71 | 71 | 0.0 | 0.0 | 0.00 | 0.00 | 0.00 | 98 | 989.6 |
| 20260905091937 | 71 | 71 | 0.0 | 0.0 | 0.00 | 0.00 | 0.00 | 98 | 989.6 |
| 20260905091434 | 71 | 71 | 0.0 | 0.0 | 0.00 | 0.00 | 0.00 | 98 | 989.5 |
| 20260905091147 | 71 | 71 | 0.0 | 0.0 | 0.00 | 0.00 | 0.00 | 98 | 989.6 |
| 20260905090425 | 71 | 71 | 0.0 | 0.0 | 0.00 | 0.00 | 0.00 | 98 | 989.6 |
| 20260905085921 | 72 | 71 | 0.0 | 0.0 | 0.00 | 0.00 | 0.00 | 98 | 989.5 |
| 20260905085416 | 72 | 71 | 0.0 | 0.0 | 0.00 | 0.00 | 0.00 | 98 | 989.5 |
| 20260905084913 | 72 | 71 | 0.0 | 0.0 | 0.00 | 0.00 | 0.00 | 98 | 989.3 |
| 20260905084408 | 72 | 71 | 0.0 | 0.0 | 0.00 | 0.00 | 0.00 | 98 | 989.4 |
| 20260905083905 | 71 | 71 | 0.0 | 0.0 | 0.00 | 0.00 | 0.00 | 98 | 989.5 |
| 20260905083401 | 71 | 71 | 0.0 | 0.0 | 0.00 | 0.00 | 0.00 | 98 | 989.4 |
| 20260905082857 | 71 | 71 | 0.0 | 0.0 | 0.00 | 0.00 | 0.00 | 98 | 989.5 |
| 20260905082353 | 72 | 71 | 0.0 | 0.0 | 0.00 | 0.00 | 0.00 | 98 | 989.5 |
| 20260905081849 | 72 | 71 | 0.0 | 0.0 | 0.00 | 0.00 | 0.00 | 98 | 989.6 |
| 20260905081344 | 72 | 71 | 0.0 | 0.0 | 0.00 | 0.00 | 0.00 | 98 | 989.6 |
| 20260905080841 | 72 | 71 | 0.0 | 0.0 | 0.00 | 0.00 | 0.00 | 98 | 989.6 |
| 20260905080337 | 72 | 71 | 0.0 | 0.0 | 0.00 | 0.00 | 0.00 | 98 | 989.6 |
| 20260905075834 | 72 | 71 | 0.0 | 0.0 | 0.00 | 0.00 | 0.00 | 98 | 989.5 |
| 20260905075548 | 72 | 71 | 0.0 | 0.0 | 0.00 | 0.00 | 0.00 | 98 | 989.7 |
| 20260905074824 | 72 | 71 | 0.0 | 0.0 | 0.00 | 0.00 | 0.00 | 98 | 989.6 |
| 20260905074320 | 72 | 71 | 0.0 | 0.0 | 0.00 | 0.00 | 0.00 | 98 | 989.9 |
| 20260905073817 | 72 | 71 | 0.0 | 0.0 | 0.00 | 0.00 | 0.00 | 98 | 989.8 |
| 20260905073313 | 72 | 71 | 0.0 | 0.0 | 0.00 | 0.00 | 0.00 | 98 | 989.7 |
| 20260905072809 | 72 | 71 | 0.0 | 0.0 | 0.00 | 0.00 | 0.00 | 98 | 989.9 |
| 20260905072306 | 72 | 71 | 0.0 | 0.0 | 0.00 | 0.00 | 0.00 | 98 | 989.7 |
| 20260905071801 | 72 | 71 | 0.0 | 0.0 | 0.00 | 0.00 | 0.00 | 98 | 989.9 |
| 20260905071257 | 73 | 71 | 0.0 | 0.0 | 0.00 | 0.00 | 0.00 | 98 | 989.9 |
| 20260905070753 | 73 | 71 | 0.0 | 0.0 | 0.00 | 0.00 | 0.00 | 98 | 990.2 |
| 20260905070249 | 73 | 71 | 0.0 | 0.0 | 0.00 | 0.00 | 0.00 | 98 | 990.0 |
| 20260905065745 | 73 | 71 | 0.0 | 0.0 | 0.00 | 0.00 | 0.00 | 98 | 990.3 |
| 20260905065459 | 73 | 71 | 0.0 | 0.0 | 0.00 | 0.00 | 0.00 | 98 | 990.2 |
| 20260905064736 | 73 | 71 | 0.0 | 0.0 | 0.00 | 0.00 | 0.00 | 98 | 990.1 |
| 20260905064234 | 73 | 71 | 0.0 | 0.0 | 0.00 | 0.00 | 0.00 | 98 | 990.3 |
| 20260905063729 | 73 | 71 | 0.0 | 0.0 | 0.00 | 0.00 | 0.00 | 98 | 990.3 |
| 20260905063225 | 73 | 71 | 0.0 | 0.0 | 0.00 | 0.00 | 0.00 | 98 | 990.4 |
| 20260905062721 | 73 | 71 | 0.0 | 0.0 | 0.00 | 0.00 | 0.00 | 98 | 990.5 |
| 20260905062217 | 73 | 71 | 0.0 | 0.0 | 0.00 | 0.00 | 0.00 | 98 | 990.6 |
| 20260905061712 | 73 | 71 | 0.0 | 0.0 | 0.00 | 0.00 | 0.00 | 98 | 990.5 |
| 20260905061655 | 73 | 71 | 0.0 | 0.0 | 0.00 | 0.00 | 0.00 | 98 | 990.4 |
| 20260905060927 | 73 | 71 | 0.0 | 0.0 | 0.00 | 0.00 | 0.00 | 98 | 990.6 |
| 20260905060200 | 73 | 71 | 0.0 | 0.0 | 0.00 | 0.00 | 0.00 | 97 | 990.7 |
| 20260905055656 | 73 | 71 | 0.0 | 0.0 | 0.00 | 0.00 | 0.00 | 97 | 990.6 |
| 20260905055413 | 73 | 71 | 0.0 | 0.0 | 0.00 | 0.00 | 0.00 | 97 | 990.9 |
| 20260905054910 | 74 | 71 | 0.0 | 0.0 | 0.00 | 0.00 | 0.00 | 97 | 990.7 |
| 20260905054144 | 74 | 71 | 0.0 | 0.0 | 0.00 | 0.00 | 0.00 | 98 | 990.8 |
| 20260905053641 | 73 | 71 | 0.0 | 0.0 | 0.00 | 0.00 | 0.00 | 97 | 990.8 |
| 20260905053357 | 73 | 71 | 0.0 | 0.0 | 0.00 | 0.00 | 0.00 | 97 | 990.8 |
| 20260905052634 | 73 | 71 | 0.0 | 0.0 | 0.00 | 0.00 | 0.00 | 97 | 990.8 |
| 20260905052129 | 73 | 71 | 0.0 | 0.0 | 0.00 | 0.00 | 0.00 | 97 | 990.6 |
| 20260905051625 | 73 | 71 | 0.0 | 0.0 | 0.00 | 0.00 | 0.00 | 97 | 990.7 |
| 20260905051121 | 74 | 71 | 0.0 | 0.0 | 0.00 | 0.00 | 0.00 | 97 | 990.9 |
| 20260905050617 | 74 | 71 | 0.0 | 0.0 | 0.00 | 0.00 | 0.00 | 97 | 990.7 |
| 20260905050112 | 74 | 71 | 0.0 | 0.0 | 0.00 | 0.00 | 0.00 | 97 | 990.7 |
| 20260905045831 | 74 | 71 | 0.0 | 0.0 | 0.00 | 0.00 | 0.01 | 97 | 990.8 |
| 20260905045104 | 74 | 71 | 0.0 | 0.0 | 0.00 | 0.00 | 0.01 | 97 | 990.8 |
| 20260905044601 | 74 | 71 | 0.0 | 0.0 | 0.00 | 0.00 | 0.01 | 97 | 990.6 |
| 20260905044057 | 74 | 71 | 0.0 | 0.0 | 0.00 | 0.00 | 0.01 | 97 | 990.6 |
| 20260905043553 | 74 | 71 | 0.0 | 0.0 | 0.00 | 0.00 | 0.01 | 97 | 990.8 |
| 20260905043049 | 74 | 71 | 0.0 | 0.0 | 0.00 | 0.00 | 0.01 | 97 | 990.9 |
| 20260905042804 | 74 | 71 | 0.0 | 0.0 | 0.00 | 0.00 | 0.01 | 97 | 990.8 |
| 20260905042041 | 74 | 71 | 0.0 | 0.0 | 0.00 | 0.00 | 0.01 | 97 | 990.8 |
| 20260905041537 | 74 | 71 | 0.0 | 0.0 | 0.00 | 0.00 | 0.01 | 97 | 990.6 |
| 20260905041034 | 75 | 71 | 0.0 | 0.0 | 0.00 | 0.00 | 0.01 | 97 | 990.7 |
| 20260905040529 | 74 | 71 | 0.0 | 0.0 | 0.00 | 0.00 | 0.01 | 97 | 990.8 |
| 20260905040025 | 74 | 71 | 0.0 | 0.0 | 0.00 | 0.00 | 0.01 | 97 | 990.7 |
| 20260905035521 | 74 | 71 | 0.0 | 0.0 | 0.00 | 0.00 | 0.01 | 97 | 990.9 |
| 20260905035017 | 74 | 71 | 0.0 | 0.0 | 0.00 | 0.00 | 0.01 | 97 | 990.9 |
| 20260905034513 | 74 | 71 | 0.0 | 0.0 | 0.00 | 0.00 | 0.01 | 97 | 991.0 |
| 20260905034010 | 75 | 71 | 0.0 | 0.0 | 0.00 | 0.00 | 0.01 | 97 | 990.8 |
| 20260905033505 | 75 | 71 | 0.0 | 0.0 | 0.00 | 0.00 | 0.01 | 97 | 990.8 |
| 20260905033001 | 75 | 71 | 0.0 | 0.0 | 0.00 | 0.00 | 0.01 | 97 | 990.8 |
| 20260905032457 | 75 | 71 | 0.0 | 0.0 | 0.00 | 0.00 | 0.01 | 97 | 990.8 |
| 20260905031952 | 75 | 71 | 0.0 | 0.0 | 0.00 | 0.00 | 0.01 | 97 | 991.0 |
| 20260905031448 | 75 | 71 | 0.0 | 0.0 | 0.00 | 0.00 | 0.01 | 97 | 990.8 |
| 20260905030945 | 75 | 71 | 0.0 | 0.0 | 0.00 | 0.00 | 0.01 | 97 | 990.8 |
| 20260905030441 | 75 | 71 | 0.0 | 0.0 | 0.00 | 0.00 | 0.01 | 97 | 990.9 |
| 20260905025937 | 76 | 71 | 0.0 | 0.0 | 0.00 | 0.00 | 0.01 | 97 | 990.9 |
| 20260905025434 | 76 | 71 | 0.0 | 0.0 | 0.00 | 0.00 | 0.01 | 97 | 990.8 |
| 20260905024929 | 76 | 71 | 0.0 | 0.0 | 0.00 | 0.00 | 0.01 | 96 | 990.9 |
| 20260905024425 | 76 | 71 | 0.0 | 0.0 | 0.00 | 0.00 | 0.01 | 96 | 990.7 |
| 20260905023921 | 76 | 71 | 0.0 | 0.0 | 0.00 | 0.00 | 0.01 | 97 | 990.7 |
| 20260905023417 | 76 | 71 | 0.0 | 0.0 | 0.00 | 0.00 | 0.01 | 96 | 990.7 |
| 20260905022912 | 76 | 71 | 0.0 | 0.0 | 0.00 | 0.00 | 0.01 | 96 | 990.8 |
| 20260905022409 | 76 | 71 | 0.0 | 0.0 | 0.00 | 0.00 | 0.01 | 96 | 990.6 |
| 20260905022126 | 76 | 71 | 0.0 | 0.0 | 0.00 | 0.00 | 0.01 | 96 | 990.5 |
| 20260905021400 | 76 | 71 | 0.0 | 0.0 | 0.00 | 0.00 | 0.01 | 96 | 990.4 |
| 20260905020857 | 77 | 71 | 0.0 | 0.0 | 0.00 | 0.00 | 0.01 | 96 | 990.4 |
| 20260905020613 | 77 | 71 | 0.0 | 0.0 | 0.00 | 0.00 | 0.01 | 96 | 990.6 |
| 20260905020109 | 77 | 71 | 0.0 | 0.0 | 0.00 | 0.00 | 0.01 | 96 | 990.5 |
| 20260905015345 | 77 | 71 | 0.0 | 0.0 | 0.00 | 0.00 | 0.01 | 96 | 990.4 |
| 20260905014841 | 77 | 71 | 0.0 | 0.0 | 0.00 | 0.00 | 0.01 | 96 | 990.4 |
| 20260905014337 | 77 | 71 | 0.0 | 0.0 | 0.00 | 0.00 | 0.01 | 96 | 990.3 |
| 20260905013834 | 77 | 71 | 0.0 | 0.0 | 0.00 | 0.00 | 0.01 | 95 | 990.4 |
| 20260905013329 | 77 | 71 | 0.0 | 0.0 | 0.00 | 0.00 | 0.01 | 94 | 990.2 |
| 20260905012825 | 77 | 71 | 0.0 | 0.0 | 0.00 | 0.00 | 0.01 | 95 | 990.2 |
| 20260905012321 | 78 | 71 | 0.0 | 0.0 | 0.00 | 0.00 | 0.01 | 95 | 990.2 |
| 20260905011817 | 78 | 71 | 0.0 | 0.0 | 0.00 | 0.00 | 0.01 | 94 | 989.8 |
| 20260905011313 | 78 | 71 | 0.0 | 0.0 | 0.00 | 0.00 | 0.01 | 95 | 990.1 |
| 20260905010305 | 78 | 71 | 0.0 | 0.0 | 0.00 | 0.00 | 0.01 | 94 | 990.0 |
| 20260905005801 | 78 | 71 | 0.0 | 0.0 | 0.00 | 0.00 | 0.01 | 93 | 990.1 |
| 20260905005256 | 78 | 71 | 0.0 | 0.0 | 0.00 | 0.00 | 0.01 | 94 | 990.2 |
| 20260905004752 | 78 | 71 | 0.0 | 0.0 | 0.00 | 0.00 | 0.01 | 94 | 990.0 |
| 20260905004249 | 79 | 71 | 0.0 | 0.0 | 0.00 | 0.00 | 0.01 | 93 | 990.0 |
| 20260905003745 | 79 | 71 | 0.0 | 0.0 | 0.00 | 0.00 | 0.01 | 92 | 989.9 |
| 20260905003240 | 79 | 71 | 0.0 | 0.0 | 0.00 | 0.00 | 0.01 | 92 | 990.2 |
| 20260905002736 | 79 | 71 | 0.0 | 0.0 | 0.00 | 0.00 | 0.01 | 91 | 990.1 |
| 20260905002234 | 79 | 71 | 0.0 | 0.0 | 0.00 | 0.00 | 0.01 | 91 | 990.0 |
| 20260905001729 | 79 | 71 | 0.0 | 0.0 | 0.00 | 0.00 | 0.01 | 91 | 990.1 |
| 20260905001225 | 80 | 71 | 0.0 | 0.0 | 0.00 | 0.00 | 0.01 | 91 | 990.3 |
| 20260905000720 | 80 | 71 | 0.0 | 0.0 | 0.00 | 0.00 | 0.01 | 91 | 990.0 |
| 20260905000218 | 80 | 71 | 0.0 | 0.0 | 0.00 | 0.00 | 0.01 | 91 | 990.0 |
| 20260904235713 | 80 | 71 | 0.0 | 0.0 | 0.00 | 0.00 | 0.01 | 91 | 990.1 |
| 20260904235427 | 80 | 71 | 0.0 | 0.0 | 0.00 | 0.00 | 0.01 | 91 | 990.0 |